FENGYUN 1C DEB

Satellite information

Favourite Embed

Satellite Type and Status

DEBRISIN ORBIT

Key statistics

Satellite FENGYUN 1C DEB at a glance.

Uptime

9554

Days in orbit

Revolutions

≈ 14.6

Per day

Orbit

SSO

Sun Synchronous Orbit

Inclination

102.6

Latest

Satellite identification and parameters

Extended collection of information and parameters for FENGYUN 1C DEB.

Object identification

Identified? True

Debris? True

Object name: FENGYUN 1C DEB

International designator: 1999-025ZB

Object number (NORAD): 30290

Object ID (CCSDS): 30290

Country: PEOPLES REPUBLIC OF CHINA (PRC)

Current information (Y/N): Y

RCS size: SMALL

Orbital parameters

Period: 98.302 minutes

Inclination: 102.6258 deg

SMA: 7055.633 km

Apoapsis: 696.047 km

Periapsis: 658.949 km

RAAN: 202.3521 deg

Eccentricy: 0.002629

Argument of periapsis: 123.2829 deg

Mean anomaly: 3.7715 deg

Mean motion: 14.6486893 rev/day

Mean motion (dot): 0.00016296 rev/day2

B* drag term: 0.0030434 1/REarth

Two-line elements (TLE)

Creation date: July 5, 2025, 5:45 p.m.

Reference frame: TEME

Reference center: EARTH

Epoch: July 5, 2025, 3:06 p.m. UTC

TLE line 0: 0 FENGYUN 1C DEB

TLE line 1: 1 30290U 99025ZB 25186.62932509 .00016296 00000-0 30434-2 0 9997

TLE line 2: 2 30290 102.6258 202.3521 0026290 123.2829 3.7715 14.64868930955282

Live tracking on map

Real-time ground track for satellite FENGYUN 1C DEB.

In-orbit conjunctions

A list of the most updated potential collisions computed for object FENGYUN 1C DEB.

Target Orbit TCA Probability of collision Miss distance Type
FENGYUN 1C DEB SSO 2024-11-14 02:15:23 0.000472623 138.0 (m) DEBRIS
CZ-6A DEB LEO 2024-10-24 02:08:16 0.0001425896 254.0 (m) DEBRIS
OXP 1 LEO 2024-08-27 10:59:30 0.0001107636 18.0 (m) PAYLOAD

Associated space launch

Chinese polar orbiting meteorological satellite

FENGYUN 1C DEB was lifted into orbit during the mission ‘Long March 4B | Feng Yun 1C’, on board a Long March 4B space rocket.

The launch took place on May 10, 1999, 1:33 a.m. from Launch Complex 7.

For more information about the launch, click the button.

Launch to space Long March 4B | Feng Yun 1C
Long March 4B | Feng Yun 1C

Agency: N/A

Status: Launch Successful

Launch date: May 10, 1999, 1:33 a.m. UTC

Rocket: Long March 4B

Launch pad: Launch Complex 7

Location: Taiyuan Satellite Launch Center, People's Republic of China

...

Latest news about this satellite

There are no fresh news available about this satellite. Check back as we update our databases every day.


Newsletter sign-up

Weekly statistics, charts and insights to help you stay on top of the space industry.